Location: Tauranga
(37.6860°S, 176.1670°E)
Time: 18:29:20
(UTC+13:00)

Meteor 2-10 Rocket - Pass Details

Date: 24 January 2019
Orbit: 733 x 885 km, 81.2° (Epoch: 18 October)

Event Time Altitude Azimuth Distance (km) Brightness Sun altitude
Rises 21:32:12 0° 340° (NNW) 3,168 6.5 -10.7°
Reaches altitude 10° 21:34:33 10° 335° (NNW) 2,265 5.8 -11.1°
Maximum altitude 21:39:30 52° 258° (WSW) 950 4.4 -11.9°
Drops below altitude 10° 21:44:42 10° 181° (S) 2,372 6.6 -12.7°
Sets 21:47:12 0° 176° (S) 3,333 7.3 -13.1°
